Weather in Celakovice

Czech Republic     50°09′39″N   14°45′15″E
temp.,
°C
wind,
m/s
gust,
m/s
humid.,
%
clouds,
%
prec.,
mm/h
press.,
hPa
HPBL,
m
11 april, sun
sun1123:00+7e349322 0.0 101651
02:00+6e3694100 0.0 1014109
05:00+5e4890100 0.0 1014137
08:00+7ese4981100 0.0 1014412
11:00+11se4569100 0.0 1013835
14:00+15se2356100 0.0 10111030
17:00+17se2352100 0.0 10101196
20:00+12se477644 0.0 1011108
12 april, mon
mon1223:00+9e468777 0.0 101396
02:00+7e369213 0.0 1014108
05:00+6n4893100 0.1 1016216
08:00+5nnw71083100 0.1 1018495
11:00+3nnw81289100 0.1 1021658
14:00+2nw51398100 2.1 1023640
17:00+3nnw51097100 2.4 1024660
20:00+2nw4997100 2.9 1026564
13 april, tue
tue1323:00+3nw2692100 0.3 1027498
02:00+2w2293100 0.6 102861
05:00+2wnw2389100 0.1 102865
08:00+4nw238185 0.1 1028248
11:00+6n5668100 0.1 10291173
14:00+7n6758100 0.6 10281679
17:00+8nnw6851100 0.1 10271866
20:00+5nnw3563100 0.1 1028112
14 april, wed
wed1423:00+4nw41068100 0.0 1028293
02:00+2nnw3975100 0.0 1028288
05:00+2nnw41078100 0.0 1028460
08:00+3nnw51076100 0.0 1028643
11:00+5nnw686199 0.1 10281597
14:00+7nnw6745100 0.1 10262038
17:00+7nnw6747100 0.0 10251844
20:00+4nw3760100 0.1 1026185
15 april, thu
thu1523:00+3nw3866100 0.0 1025221
02:00+3nw3873100 0.0 1025368
05:00+2nnw3797100 0.4 1025420
08:00+3nnw5881100 0.4 1026550
11:00+4nnw6859100 0.0 10261356
14:00+5nnw6765100 0.0 10261216
17:00+3n6881100 0.2 1026829
20:00+2nw51094100 1.0 1026596